Preview of NWS' New Version of Forecast
This preview is not operational and should not be used for support decisions.
Latest weather observations around

Los Angeles, Los Angeles International Airport (KLAX)

Using English Units (Switch to International System of Units)
Date/ Time (PDT) Wind (mph) Vis. (mi) Weather Sky Cond. Temp (°F) Rel. Humidity Wind Chill (°F) Heat Index (°F) Pressure Precip. (in)
Air Dwpt 6 hour Altimeter (inHg) Sea level (inHg) 1 hr 3 hr 6 hr
Max Min
Jul 21 20:23 W 11 10 Partly Cloudy SCT008 SCT250 65 60     84%     29.9        
Jul 21 19:53 W 13 10 Mostly Clear FEW010 FEW250 66 60     81%     29.89 29.88      
Jul 21 18:53 WSW 14 10 Mostly Clear FEW012 FEW250 67 60     79%     29.88 29.88      
Jul 21 17:53 W 15 10 Mostly Clear FEW012 FEW250 69 61     75%     29.88 29.88      
Jul 21 16:53 W 16 10 Mostly Clear FEW012 FEW250 70 60     71%     29.89 29.89      
Jul 21 15:53 W 18 10 Mostly Clear FEW012 FEW250 71 60     68%   71 29.91 29.9      
Jul 21 14:53 W 18 10 Mostly Clear FEW012 FEW250 71 60     68%   71 29.92 29.91      
Jul 21 13:53 W 14 10 Partly Cloudy FEW010 FEW230 SCT280 71 60     68%   71 29.93 29.93      
Jul 21 12:53 W 13 10 Mostly Clear FEW010 FEW230 70 60     71%     29.94 29.93      
Jul 21 11:53 W 10 10 Partly Cloudy FEW010 FEW120 SCT230 70 60     71%     29.95 29.94      
Jul 21 10:53 W 7 10 Mostly Clear FEW010 FEW120 70 60     71%     29.95 29.95      
Jul 21 09:53 W 6 10 Mostly Clear FEW011 FEW120 69 61     75%     29.94 29.93      
Jul 21 08:53 WSW 5 10 Partly Cloudy FEW013 SCT120 67 60     79%     29.94 29.94      
Jul 21 08:43 SW 6 10 Mostly Cloudy SCT013 BKN120 67 60     79%     29.94        
Jul 21 07:53 W 6 10 Mostly Cloudy BKN011 65 60     84%     29.94 29.93      
Jul 21 06:53 SW 5 10 Mostly Cloudy BKN010 64 60     87%     29.92 29.92      
Jul 21 05:53 WSW 6 10 Mostly Cloudy BKN011 63 59     87%     29.91 29.91      
Jul 21 04:53 WSW 7 10 Mostly Cloudy BKN010 63 59     87%     29.91 29.9      
Jul 21 03:53 W 11 10 Mostly Cloudy BKN010 63 59     87%     29.9 29.89      
Jul 21 02:53 W 8 10 Mostly Cloudy BKN012 64 59     84%     29.92 29.91      
Jul 21 01:53 WSW 9 10 Mostly Cloudy BKN012 64 59     84%     29.92 29.91      
Jul 21 00:53 W 10 10 Partly Cloudy SCT012 64 59     84%     29.92 29.91      
Jul 20 23:53 WSW 8 10 Partly Cloudy SCT012 64 59     84%     29.92 29.91      
Jul 20 22:53 WSW 11 10 Mostly Clear FEW013 65 59     81%     29.91 29.91      
Jul 20 21:53 W 11 10 Mostly Clear FEW013 65 59     81%     29.9 29.9      
Jul 20 20:53 W 13 10 Mostly Clear FEW015 66 59     78%     29.89 29.88      
Jul 20 19:53 WSW 14 10 Mostly Clear FEW015 FEW100 66 58     75%     29.88 29.87      
Jul 20 18:53 W 16 10 Mostly Clear FEW015 FEW100 68 58     70%     29.88 29.87      
Jul 20 17:53 W 15 10 Mostly Clear FEW015 70 59     68%     29.88 29.88      
Jul 20 16:53 W 16 10 Mostly Clear FEW015 71 59     66%   71 29.89 29.89      
Jul 20 15:53 W 14 10 Mostly Clear FEW025 71 60     68%   71 29.9 29.9      
Jul 20 14:53 WSW 14 10 Mostly Clear FEW025 73 59     61%   73 29.92 29.91      
Jul 20 13:53 W 14 10 Mostly Clear FEW025 73 58     59%   73 29.94 29.93      
Jul 20 12:53 WSW 14 10 Clear CLR 72 59     64%   72 29.94 29.94      
Jul 20 11:53 WSW 11 10 Mostly Clear FEW025 72 59     64%   72 29.95 29.95      
Jul 20 10:53 W 10 10 Partly Cloudy SCT025 71 59     66%   71 29.96 29.96      
Jul 20 10:23 SW 9 10 Clear   70 60     71%     29.96        
Jul 20 09:53 WSW 8 10 Clear   69 59     70%     29.96 29.96      
Jul 20 08:53 W 7 10 Mostly Cloudy BKN024 68 59     73%     29.96 29.96      
Jul 20 07:53 WNW 5 10 Cloudy OVC023 67 59     76%     29.96 29.95      
Jul 20 06:53 Calm 10 Cloudy OVC021 67 59     76%     29.95 29.94      
Jul 20 05:53 Calm 10 Cloudy OVC021 66 59     78%     29.94 29.94      
Jul 20 04:53 Calm 10 Cloudy OVC019 65 59     81%     29.94 29.93      
Jul 20 03:53 Calm 10 Cloudy OVC016 65 59     81%     29.94 29.93      
Jul 20 02:53 W 6 10 Cloudy OVC017 65 59     81%     29.94 29.93      
Jul 20 01:53 W 7 10 Cloudy OVC015 65 59     81%     29.94 29.93      
Jul 20 00:53 WSW 8 10 Cloudy OVC014 65 59     81%     29.94 29.93      
Jul 19 23:53 WSW 9 10 Mostly Cloudy BKN012 64 59     84%     29.94 29.93      
Jul 19 23:41 WSW 8 10 Mostly Cloudy BKN012 64 59     84%     29.94        
Jul 19 22:53 W 10 10 Partly Cloudy SCT012 65 59     81%     29.93 29.93      
Jul 19 21:53 W 13 10 Partly Cloudy SCT011 65 59     81%     29.93 29.92      
Jul 19 20:53 W 13 10 Partly Cloudy SCT012 SCT020 66 59     78%     29.91 29.9      
Jul 19 19:53 W 13 10 Mostly Clear FEW020 67 59     76%     29.89 29.89      
Jul 19 18:53 W 13 10 Mostly Clear FEW018 68 58     70%     29.9 29.89      
Jul 19 17:53 W 16 10 Mostly Clear FEW017 69 59     70%     29.9 29.89      
Jul 19 16:53 W 15 10 Mostly Clear FEW015 FEW150 69 59     70%     29.91 29.91      
Jul 19 15:53 W 15 10 Partly Cloudy FEW015 FEW090 SCT140 SCT180 71 58     63%   71 29.92 29.91      
Jul 19 14:53 W 11 9 Partly Cloudy FEW028 FEW090 SCT160 71 59     66%   71 29.93 29.93      
Jul 19 13:53 W 14 9 Partly Cloudy FEW025 FEW090 SCT160 72 57     59%   72 29.94 29.93      
Jul 19 12:53 WSW 13 9 Partly Cloudy FEW025 SCT090 SCT160 72 57     59%   72 29.95 29.95      
Jul 19 11:53 WSW 11 8 Mostly Cloudy FEW028 SCT090 BKN160 71 57     61%   71 29.96 29.96      
Jul 19 10:53 W 10 8 Mostly Cloudy SCT027 SCT080 BKN160 70 57     63%     29.96 29.95      
Jul 19 09:53 Calm 8 Partly Cloudy SCT025 69 57     65%     29.95 29.94      
Jul 19 09:15 6 8 Partly Cloudy SCT025 67 57     71%     29.95        
Jul 19 08:53 7 7 Mostly Cloudy BKN023 67 57     71%     29.96 29.95      
Jul 19 07:53 Calm 7 Cloudy OVC022 65 58     78%     29.95 29.95      
Jul 19 06:53 E 5 7 Cloudy OVC019 64 57     78%     29.94 29.93      
Jul 19 05:53 ENE 3 10 Cloudy OVC015 63 58     84%     29.93 29.92      
Jul 19 05:24 Calm 10 Cloudy OVC015 63 58     84%     29.93        
Jul 19 04:53 Calm 10 Cloudy BKN014 OVC200 63 58     84%     29.93 29.92      
Jul 19 03:53 WSW 5 10 Cloudy OVC015 62 58     86%     29.93 29.92      
Jul 19 02:53 WSW 5 10 Cloudy OVC018 62 58     86%     29.93 29.92      
Jul 19 01:53 WSW 8 10 Mostly Cloudy BKN014 63 58     84%     29.93 29.92      
Jul 19 00:53 SW 5 10 Partly Cloudy SCT013 62 58     86%     29.93 29.92      
Jul 18 23:53 W 7 10 Partly Cloudy SCT013 62 58     86%     29.94 29.93      
Jul 18 22:53 WSW 8 10 Partly Cloudy SCT012 63 58     84%     29.94 29.93      
Jul 18 21:53 WSW 8 10 Partly Cloudy SCT012 63 58     84%     29.93 29.93      
Jul 18 21:13 W 9 10 Partly Cloudy SCT012 63 58     84%     29.92        
Jul 18 20:53 W 13 10 Mostly Cloudy BKN012 BKN120 63 58     84%     29.92 29.91      
Jul 18 20:25 W 11 10 Mostly Cloudy BKN012 BKN120 63 58     84%     29.91        
Jul 18 19:53 WSW 11 10 Partly Cloudy SCT012 SCT150 64 59     84%     29.9 29.9      
Jul 18 18:53 WSW 11 10 Partly Cloudy SCT012 66 59     78%     29.9 29.89      
Jul 18 17:53 W 14 10 Mostly Clear FEW012 67 59     76%     29.91 29.91      
Jul 18 16:53 W 16 10 Mostly Clear FEW012 70 59     68%     29.92 29.91      
Jul 18 15:53 W 15 10 Mostly Clear FEW012 70 60     71%     29.93 29.93      
Jul 18 14:53 W 13 10 Mostly Clear FEW014 71 61     70%   71 29.95 29.94      
Jul 18 13:53 W 13 9 Partly Cloudy SCT014 71 61     70%   71 29.97 29.96      
Jul 18 12:53 W 11 9 Partly Cloudy SCT016 73 62     68%   73 29.98 29.97      
Jul 18 11:53 W 10 8 Partly Cloudy SCT016 72 62     71%   72 29.98 29.97      
Jul 18 10:53 W 9 8 Partly Cloudy SCT020 72 62     71%   72 29.99 29.98      
Jul 18 10:13 3 8 Partly Cloudy SCT020 72 61     68%   72 29.99        
Jul 18 09:53 Calm 8 Mostly Cloudy BKN018 70 60     71%     29.99 29.98      
Jul 18 08:53 S 7 8 Cloudy OVC018 68 60     76%     29.99 29.98      
Jul 18 07:53 ESE 5 8 Cloudy OVC017 67 60     79%     29.98 29.97      
Jul 18 06:53 ENE 3 7 Cloudy OVC017 67 60     79%     29.97 29.96      
Jul 18 05:53 S 3 10 Cloudy OVC016 66 60     81%     29.96 29.96      
Jul 18 04:53 SSE 6 10 Cloudy OVC016 66 60     81%     29.96 29.95      
Jul 18 03:53 SE 5 10 Cloudy OVC017 66 61     84%     29.96 29.95      
Jul 18 02:53 SSE 6 10 Cloudy OVC015 67 61     81%     29.96 29.95      
Jul 18 01:53 Calm 10 Cloudy OVC015 67 62     84%     29.97 29.96      
Jul 18 00:53 NW 5 10 Cloudy OVC016 67 61     81%     29.97 29.96      
Jul 17 23:53 5 10 Cloudy OVC014 67 61     81%     29.97 29.96      
Jul 17 22:53 W 5 10 Cloudy OVC015 67 62     84%     29.96 29.95      
Jul 17 21:53 NW 6 10 Cloudy OVC013 67 62     84%     29.95 29.94      
Jul 17 20:53 W 9 10 Partly Cloudy SCT014 67 62     84%     29.94 29.93      
Jul 17 20:15 W 9 10 Mostly Cloudy BKN013 68 62     81%     29.94        
Jul 17 19:53 W 9 10 Mostly Clear FEW010 67 61     81%     29.94 29.93      
Jul 17 18:53 W 11 10 Mostly Clear FEW010 69 61     75%     29.93 29.93      
Jul 17 17:53 WSW 10 10 Mostly Clear FEW010 FEW250 71 61     70%   71 29.92 29.92      
Jul 17 16:53 WSW 10 10 Mostly Clear FEW010 FEW250 72 61     68%   72 29.94 29.93      
Jul 17 15:53 W 10 10 Mostly Clear FEW010 FEW250 72 61     68%   72 29.94 29.93      
Jul 17 14:53 WSW 10 10 Mostly Clear FEW250 72 61     68%   72 29.95 29.94      
Jul 17 13:53 W 13 9 Mostly Clear FEW025 73 61     66%   73 29.96 29.95      
Jul 17 12:53 WSW 13 8 Mostly Clear FEW020 72 61     68%   72 29.96 29.95      
Jul 17 11:53 W 13 8 Mostly Clear FEW020 72 61     68%   72 29.96 29.96      
Jul 17 10:53 S 8 8 Mostly Clear FEW019 72 61     68%   72 29.96 29.95      
Jul 17 09:53 S 6 9 Partly Cloudy SCT018 71 61     70%   71 29.95 29.94      
Jul 17 09:24 3 8 Partly Cloudy SCT018 70 60     71%     29.94        
Jul 17 08:53 6 8 Mostly Cloudy FEW011 BKN018 68 61     78%     29.94 29.93      
Jul 17 07:53 SE 3 8 Mostly Cloudy SCT011 BKN016 66 60     81%     29.92 29.92      
Jul 17 06:53 E 6 8 Mostly Cloudy BKN016 66 60     81%     29.91 29.9      
Jul 17 06:43 E 8 8 Mostly Cloudy BKN016 65 60     84%     29.9        
Jul 17 05:53 SE 5 10 Mostly Cloudy BKN014 65 60     84%     29.88 29.87      
Jul 17 04:53 6 10 Cloudy OVC014 66 60     81%     29.86 29.85      
Jul 17 03:53 E 7 10 Cloudy OVC013 65 60     84%     29.85 29.84      
Jul 17 02:53 E 7 10 Cloudy OVC012 65 60     84%     29.86 29.85      
Jul 17 01:53 ESE 11 10 Cloudy OVC012 65 60     84%     29.86 29.85      
Jul 17 00:53 SE 10 10 Mostly Cloudy BKN011 66 62     87%     29.86 29.85      
Jul 17 00:29 ESE 8 10 Mostly Cloudy BKN010 66 62     87%     29.86        
Jul 16 23:53 ESE 7 10 Mostly Clear FEW008 66 62     87%     29.86 29.85      
Jul 16 22:53 SE 5 10 Clear   66 59     78%     29.85 29.85      
Jul 16 21:53 WSW 6 10 Clear CLR 65 59     81%     29.86 29.85      
Jul 16 20:53 WSW 8 10 Mostly Clear FEW010 66 63     90%     29.84 29.83      
Jul 16 19:53 W 9 10 Mostly Clear FEW008 67 63     87%     29.82 29.82      
Jul 16 18:53 W 9 10 Mostly Clear FEW008 69 63     81%     29.82 29.81      
Jul 16 15:53 W 10 7 Mostly Clear FEW008 72 62     71%   72 29.84 29.84      
Jul 16 14:53 W 10 7 Mostly Clear FEW005 72 63     73%   72 29.86 29.85      
Jul 16 13:53 W 13 6 Haze FEW005 72 63     73%   72 29.86 29.86      
Jul 16 12:53 W 8 6 Haze FEW005 72 63     73%   72 29.87 29.87      
Jul 16 11:53 W 9 5 Fog/Mist SCT005 70 63     78%     29.87 29.87      
Jul 16 10:53 W 8 4 Patchy Fog and Fog/Mist SKC SCT007 69 63     81%     29.87 29.87      
Jul 16 10:27 W 9 4 Patchy Fog and Fog/Mist SKC SCT006 69 62     78%     29.87        
Jul 16 09:53 W 7 2.5 Patchy Fog and Fog/Mist SKC BKN006 67 62     84%     29.87 29.86      
Jul 16 09:48 WSW 8 2.5 Patchy Fog and Fog/Mist SKC BKN006 68 63     83%     29.87        
Jul 16 09:07 6 1 Patchy Fog and Fog/Mist SKC BKN006 66 62     87%     29.86        
Jul 16 08:53 SW 6 0.75 Patchy Fog and Fog/Mist SKC BKN004 66 62     87%     29.86 29.85      
Jul 16 08:29 SW 5 0.5 Fog SKC BKN004 65 62     90%     29.85        
Jul 16 07:53 SW 5 0.25 Fog SKC OVC002 63 62     97%     29.84 29.84      
Jul 16 06:53 WSW 6 0.25 Fog SKC BKN002 62 60     93%     29.83 29.83      
Jul 16 06:48 WSW 7 0.25 Fog SKC 63 61     94%     29.83        
Jul 16 05:53 SSE 3 10 Partly Cloudy SCT009 64 60     87%     29.82 29.81      
Jul 16 05:47 SE 3 10 Partly Cloudy SCT009 64 60     87%     29.82        
Jul 16 04:53 Calm 10 Clear CLR 63 60     90%     29.81 29.8      
Jul 16 03:53 Calm 10 Mostly Clear FEW001 63 61     93%     29.81 29.8      
Jul 16 02:53 Calm 10 Clear CLR 64 61     90%     29.81 29.8      
Jul 16 01:53 5 9 Clear CLR 64 61     90%     29.82 29.81      
Jul 16 00:53 WSW 5 10 Mostly Clear FEW002 63 60     90%     29.84 29.83      
Jul 15 23:53 SW 5 10 Mostly Clear FEW003 63 61     93%     29.85 29.84      
Jul 15 22:53 3 10 Mostly Clear FEW005 64 61     90%     29.85 29.84      
Jul 15 21:53 WSW 5 10 Clear   64 61     90%     29.85 29.84      
Jul 15 20:53 WSW 6 8 Partly Cloudy SCT007 64 61     90%     29.84 29.83      
Jul 15 20:29 WSW 7 8 Partly Cloudy SCT007 64 61     90%     29.83        
Jul 15 19:53 W 8 7 Mostly Cloudy BKN007 65 61     87%     29.84 29.83      
Jul 15 18:53 W 10 8 Mostly Cloudy BKN006 66 61     84%     29.83 29.83      
Jul 15 17:53 W 10 9 Mostly Cloudy BKN009 66 61     84%     29.84 29.84      
Jul 15 17:39 WSW 7 8 Mostly Cloudy BKN010 66 61     84%     29.84        
Jul 15 16:53 W 7 9 Mostly Cloudy BKN009 67 61     81%     29.86 29.85      
Jul 15 16:38 W 8 10 Mostly Cloudy BKN009 68 61     78%     29.86        
Jul 15 15:53 WSW 8 10 Partly Cloudy SCT009 69 62     78%     29.88 29.87      
Jul 15 14:53 W 13 10 Mostly Cloudy BKN009 70 61     73%     29.9 29.89      
Jul 15 13:53 W 10 6 Haze SCT007 70 62     76%     29.91 29.91      
Jul 15 12:53 W 13 3 Haze SCT007 69 61     75%     29.91 29.91      
Jul 15 11:53 W 11 3 Haze SCT007 70 62     76%     29.93 29.92      
Jul 15 10:53 W 11 3 Haze FEW007 SCT010 71 63     76%   71 29.93 29.93      
Jul 15 10:25 WSW 9 3 Haze FEW006 SCT010 71 63     76%   71 29.93        
Jul 15 09:53 SW 6 1.5 Haze FEW006 SCT010 72 63     73%   72 29.93 29.93      
Jul 15 09:43 WSW 6 3 Haze FEW006 SCT010 70 63     78%     29.93        
Jul 15 08:53 Calm 2.5 Fog/Mist FEW006 BKN010 70 63     78%     29.94 29.93      
Jul 15 08:20 Calm 2.5 Fog/Mist SCT008 OVC010 67 63     87%     29.94        
Jul 15 07:53 Calm 2.5 Fog/Mist OVC008 66 62     87%     29.94 29.94      
Jul 15 06:53 SSW 5 2.5 Fog/Mist OVC007 64 62     93%     29.93 29.92      
Jul 15 05:53 Calm 2.5 Fog/Mist OVC006 64 62     93%     29.92 29.91      
Jul 15 04:53 Calm 2.5 Fog/Mist OVC005 64 62     93%     29.91 29.9      
Jul 15 03:53 W 5 3 Fog/Mist OVC006 64 62     93%     29.92 29.91      
Jul 15 02:53 SW 6 3 Fog/Mist OVC005 63 62     97%     29.92 29.91      
Jul 15 01:53 WSW 5 3 Fog/Mist BKN006 63 61     93%     29.93 29.93      
Jul 15 00:53 SW 5 7 Partly Cloudy SCT010 64 61     90%     29.95 29.94      
Jul 15 00:40 Calm 7 Partly Cloudy SCT009 64 61     90%     29.95        
Jul 14 23:53 Calm 6 Fog/Mist OVC008 64 61     90%     29.96 29.95      
Jul 14 22:53 Calm 7 Cloudy BKN006 OVC010 64 61     90%     29.97 29.96      
Jul 14 21:53 W 6 4 Fog/Mist OVC006 64 61     90%     29.96 29.95      
Jul 14 20:53 7 6 Fog/Mist OVC006 64 61     90%     29.95 29.94      
Jul 14 19:53 WSW 9 7 Cloudy OVC006 64 61     90%     29.93 29.92      
Jul 14 18:53 WSW 10 9 Cloudy OVC006 66 61     84%     29.92 29.91      
Jul 14 17:53 W 13 8 Cloudy OVC007 67 61     81%     29.92 29.92      
Jul 14 16:53 WSW 13 9 Cloudy OVC007 68 61     78%     29.93 29.93      
Jul 14 15:53 W 15 9 Mostly Cloudy BKN009 71 61     70%   71 29.95 29.94      
Jul 14 15:26 W 15 9 Mostly Clear FEW009 FEW090 71 62     73%   71 29.95        
Jul 14 14:53 W 15 7 Mostly Clear FEW010 FEW090 72 62     71%   72 29.96 29.95      
Jul 14 13:53 W 13 6 Haze SCT010 72 62     71%   72 29.96 29.96      
Jul 14 12:53 W 11 6 Haze SCT009 72 62     71%   72 29.97 29.97      
Jul 14 11:53 W 10 5 Haze FEW009 71 62     73%   71 29.98 29.97      
Jul 14 10:53 W 10 5 Haze FEW009 71 62     73%   71 29.98 29.97      
Jul 14 10:39 W 7 5 Haze SCT009 71 62     73%   71 29.97        
Jul 14 09:53 W 10 5 Haze FEW010 70 62     76%     29.97 29.97      
Jul 14 08:53 NW 5 6 Haze FEW011 71 62     73%   71 29.96 29.96      
Jul 14 08:33 Calm 5 Haze SCT011 68 62     81%     29.96        
Jul 14 08:05 3 5 Haze BKN010 67 62     84%     29.97        
Jul 14 07:53 NNW 3 5 Haze BKN009 67 62     84%     29.96 29.96      
Jul 14 06:53 NW 3 6 Fog/Mist BKN009 66 62     87%     29.96 29.96      
Jul 14 05:53 NNE 5 5 Fog/Mist OVC009 65 61     87%     29.95 29.94      
Jul 14 04:53 Calm 4 Fog/Mist OVC008 65 61     87%     29.95 29.94      
Jul 14 03:53 ESE 8 5 Fog/Mist OVC008 65 61     87%     29.95 29.93      
Jul 14 02:53 ENE 3 6 Fog/Mist OVC008 65 61     87%     29.94 29.93      
Jul 14 01:53 ESE 7 4 Fog/Mist OVC008 65 61     87%     29.95 29.94      
Jul 14 00:53 ESE 5 6 Fog/Mist OVC010 65 61     87%     29.95 29.93      
Jul 13 23:53 SSE 7 6 Fog/Mist BKN010 65 61     87%     29.94 29.93      
Jul 13 22:53 SSW 3 7 Cloudy OVC008 64 61     90%     29.93 29.92      
Jul 13 21:53 W 5 7 Cloudy OVC007 64 61     90%     29.91 29.9      
Jul 13 20:53 W 8 8 Cloudy OVC005 64 61     90%     29.88 29.87      
Jul 13 19:53 W 13 7 Cloudy OVC006 65 61     87%     29.85 29.85      
Jul 13 18:53 WSW 9 7 Mostly Cloudy BKN007 67 62     84%     29.84 29.83      
Jul 13 17:53 W 9 8 Partly Cloudy SCT009 70 63     78%     29.84 29.83      
Jul 13 16:53 W 10 9 Mostly Cloudy SCT008 BKN080 71 62     73%   71 29.85 29.85      
Jul 13 15:53 W 9 9 Partly Cloudy FEW070 SCT100 73 63     71%   73 29.86 29.85      
Jul 13 14:53 WSW 8 10 Mostly Clear FEW008 FEW100 73 63     71%   73 29.87 29.87      
Jul 13 13:53 WSW 9 8 Mostly Clear FEW007 FEW100 74 64     71%   74 29.88 29.88      
Jul 13 12:53 W 9 5 Haze FEW008 74 64     71%   74 29.89 29.88      
Jul 13 12:14 W 8 5 Haze FEW008 73 63     71%   73 29.89        
Jul 13 11:53 WSW 9 5 Haze FEW010 74 63     69%   74 29.89 29.89      
Jul 13 10:53 W 9 5 Haze SCT010 72 63     73%   72 29.89 29.89      
Jul 13 09:53 W 10 5 Haze SCT009 71 63     76%   71 29.88 29.87      
Jul 13 08:53 WSW 6 7 Mostly Clear FEW008 70 63     78%     29.87 29.87      
Jul 13 07:53 SW 3 6 Fog/Mist SCT009 68 64     87%     29.86 29.85      
Jul 13 06:53 NW 3 6 Fog/Mist FEW008 66 63     90%     29.84 29.83      
Jul 13 05:53 N 3 8 Mostly Clear FEW008 65 62     90%     29.83 29.82      
Jul 13 04:53 Calm 10 Mostly Clear FEW008 64 61     90%     29.82 29.81      
Jul 13 02:53 Calm 10 Mostly Clear FEW008 64 61     90%     29.81 29.8      
Jul 13 01:53 Calm 10 Partly Cloudy SCT008 65 62     90%     29.82 29.81      
Jul 13 00:53 WSW 6 10 Mostly Clear FEW008 66 61     84%     29.83 29.82      
Jul 12 22:53 SW 6 10 Clear   66 61     84%     29.82 29.81      
Jul 12 21:53 WSW 3 10 Mostly Clear FEW008 66 60     81%     29.82 29.81      
Jul 12 20:53 WSW 6 10 Mostly Clear FEW008 66 61     84%     29.8 29.8      
Jul 12 19:53 WSW 11 10 Mostly Clear FEW008 66 60     81%     29.8 29.79      
Jul 12 18:53 W 11 10 Mostly Clear FEW008 68 60     76%     29.79 29.79      
Jul 12 17:53 W 14 10 Mostly Clear FEW070 69 60     73%     29.79 29.78      
Jul 12 16:53 WSW 13 10 Mostly Clear FEW007 70 61     73%     29.81 29.8      
Jul 12 15:53 W 13 9 Partly Cloudy SCT009 SCT100 70 62     76%     29.82 29.82      
Jul 12 14:53 W 14 8 Partly Cloudy SCT010 SCT140 73 62     68%   73 29.84 29.83      
Jul 12 13:53 W 14 6 Haze SCT010 SCT140 73 62     68%   73 29.85 29.84      
Jul 12 12:53 W 14 6 Haze SCT010 SCT160 73 62     68%   73 29.87 29.86      
Jul 12 11:53 W 9 6 Haze FEW010 FEW160 73 62     68%   73 29.87 29.87      
Jul 12 10:53 W 7 6 Haze SCT013 SCT160 72 62     71%   72 29.88 29.88      
Jul 12 09:53 W 7 6 Haze SCT012 SCT160 72 62     71%   72 29.88 29.88      
Jul 12 08:53 3 6 Haze FEW009 SCT011 SCT160 70 62     76%     29.89 29.89      
Jul 12 08:16 SSE 5 5 Haze FEW009 SCT011 69 62     78%     29.9        
Jul 12 07:53 SSE 5 4 Fog/Mist BKN009 66 62     87%     29.9 29.89      
Jul 12 06:53 ESE 6 6 Fog/Mist BKN009 65 61     87%     29.89 29.88      
Jul 12 06:48 ESE 6 6 Fog/Mist BKN009 64 61     88%     29.89        
Jul 12 05:53 3 8 Mostly Cloudy BKN010 BKN160 64 60     87%     29.88 29.87      
Jul 12 04:53 Calm 10 Mostly Cloudy BKN010 BKN150 64 60     87%     29.88 29.88      
Jul 12 03:53 Calm 10 Mostly Cloudy BKN010 65 61     87%     29.88 29.87      
Jul 12 03:32 W 5 10 Mostly Cloudy BKN010 65 61     87%     29.88        
Jul 12 02:53 W 3 10 Mostly Clear FEW011 65 61     87%     29.88 29.87      
Jul 12 01:53 WSW 3 10 Mostly Clear FEW011 65 61     87%     29.89 29.88      
Jul 12 00:53 Calm 10 Mostly Clear FEW011 66 61     84%     29.89 29.88      
Jul 11 23:53 S 3 10 Mostly Clear FEW011 66 61     84%     29.91 29.9      
Jul 11 22:53 SW 6 10 Mostly Clear FEW011 66 61     84%     29.91 29.9      
Jul 11 21:53 W 6 10 Clear CLR 66 60     81%     29.91 29.9      
Jul 11 20:53 WSW 8 9 Mostly Clear FEW008 65 60     84%     29.9 29.89      
Jul 11 19:53 W 15 10 Mostly Clear FEW008 66 60     81%     29.89 29.89      
Jul 11 18:53 W 13 9 Mostly Clear FEW007 67 61     81%     29.91 29.9      
Jul 11 17:53 WSW 11 7 Mostly Clear FEW007 68 62     81%     29.91 29.91      
Jul 11 16:53 W 11 8 Partly Cloudy SCT009 69 61     75%     29.93 29.93      
Jul 11 15:53 W 13 10 Partly Cloudy SCT010 71 61     70%   71 29.95 29.94      
Jul 11 14:53 W 16 10 Partly Cloudy SCT010 72 61     68%   72 29.96 29.96      
Jul 11 13:53 WSW 14 9 Partly Cloudy SCT010 72 61     68%   72 29.98 29.97      
Jul 11 12:53 WSW 13 8 Partly Cloudy SCT010 73 62     68%   73 29.98 29.98      
Jul 11 10:53 WSW 9 8 Mostly Clear FEW010 73 61     66%   73 30.01 30      
Jul 11 09:53 W 7 7 Partly Cloudy SCT010 71 61     70%   71 30.01 30.01      
Jul 11 08:53 Calm 7 Partly Cloudy SCT009 70 61     73%     30.02 30.01      
Jul 11 07:53 WSW 3 6 Haze SCT008 67 61     81%     30.02 30.01      
Jul 11 07:42 WSW 3 6 Haze SCT008 66 62     87%     30.02        
Jul 11 06:53 W 5 8 Mostly Cloudy BKN009 BKN140 65 61     87%     30.01 30      
Jul 11 05:53 SSE 3 8 Mostly Cloudy BKN009 BKN140 64 60     87%     30 29.99      
Jul 11 04:53 W 3 10 Partly Cloudy SCT009 64 60     87%     29.99 29.98      
Jul 11 04:12 WSW 5 10 Partly Cloudy SCT008 64 59     84%     29.98        
Jul 11 03:53 W 5 10 Mostly Cloudy BKN008 64 60     87%     29.98 29.97      
Jul 11 02:53 WSW 5 10 Mostly Cloudy BKN008 65 60     84%     29.98 29.97      
Jul 11 01:53 SSW 6 10 Mostly Cloudy BKN010 65 60     84%     29.99 29.98      
Jul 11 00:53 S 6 10 Mostly Clear FEW010 65 60     84%     29.99 29.98      
Jul 10 23:53 W 6 10 Mostly Clear FEW010 65 60     84%     30 29.99      
Jul 10 22:53 WSW 6 10 Mostly Clear FEW010 65 60     84%     30.01 30      
Jul 10 21:53 WSW 8 10 Mostly Clear FEW010 65 59     81%     30.01 30      
Jul 10 20:53 WSW 8 10 Mostly Clear FEW009 65 60     84%     29.99 29.99      
Jul 10 19:53 W 10 9 Partly Cloudy SCT008 65 60     84%     29.99 29.99      
Jul 10 19:05 WSW 11 9 Mostly Cloudy BKN009 66 60     81%     30        
Jul 10 18:53 W 13 10 Mostly Clear FEW009 66 60     81%     30 29.99      
Jul 10 17:53 WSW 15 10 Mostly Clear FEW008 69 60     73%     30 29.99      
Jul 10 15:53 WSW 15 10 Mostly Clear FEW010 71 60     68%   71 30.02 30.02      
Jul 10 11:53 W 11 8 Partly Cloudy SCT014 71 60     68%   71 30.06 30.06      
Jul 10 10:53 W 9 8 Partly Cloudy SCT016 70 60     71%     30.06 30.06      
Jul 10 09:53 W 6 7 Clear   69 60     73%     30.06 30.05      
Jul 10 07:09 W 5 6 Fog/Mist SCT007 OVC010 64 59     84%     30.05        
Jul 10 06:53 W 6 6 Fog/Mist OVC009 64 59     84%     30.05 30.04      
Jul 10 05:53 WSW 5 6 Fog/Mist OVC009 64 59     84%     30.04 30.03      
Jul 10 04:53 Calm 9 Cloudy OVC009 64 60     87%     30.03 30.02      
Jul 10 04:15 W 3 10 Mostly Cloudy BKN010 64 59     84%     30.02        
Jul 10 03:53 W 6 10 Partly Cloudy SCT010 63 59     87%     30.02 30.01      
Jul 10 02:53 Calm 10 Mostly Clear FEW010 63 59     87%     30.02 30.01      
Jul 10 01:53 WSW 5 10 Partly Cloudy SCT010 63 59     87%     30.02 30.01      
Jul 10 00:53 W 6 10 Partly Cloudy SCT010 64 59     84%     30.02 30.01      
Jul 09 23:53 WSW 7 10 Mostly Clear FEW010 64 59     84%     30.02 30.01      
Jul 09 22:53 WSW 6 10 Mostly Clear FEW010 64 59     84%     30.02 30.01      
Jul 09 21:53 W 11 10 Mostly Clear FEW008 64 59     84%     30.02 30.01      
Jul 09 20:53 WSW 11 10 Partly Cloudy SCT008 65 59     81%     30.01 30.01      
Jul 09 20:38 WSW 11 10 Mostly Clear FEW008 65 59     81%     30.01        
Jul 09 19:53 W 13 10 Mostly Clear FEW010 FEW250 66 59     78%     30 30      
Jul 09 18:53 W 15 10 Mostly Clear FEW015 FEW250 68 59     73%     29.99 29.98      
Jul 09 17:53 WSW 16 10 Mostly Clear FEW015 FEW250 71 58     63%   71 29.98 29.98      
Jul 09 16:53 W 16 10 Partly Cloudy FEW015 FEW200 SCT250 72 59     64%   72 29.99 29.98      
Jul 09 14:53 W 16 10 Partly Cloudy FEW200 SCT250 72 59     64%   72 30.01 30      
Jul 09 13:53 W 15 8 Mostly Cloudy FEW040 SCT140 BKN180 73 59     61%   73 30.02 30.01      
Jul 09 11:53 W 9 8 Mostly Cloudy FEW029 SCT160 BKN180 73 59     61%   73 30.04 30.03      
Jul 09 10:53 W 9 8 Partly Cloudy SCT028 SCT140 70 59     68%     30.05 30.04      
Jul 09 10:36 WSW 9 8 Partly Cloudy SCT028 SCT140 71 59     66%   71 30.04        
May 15 08:53 SSW 8 8 Mostly Cloudy BKN021 62 52     70%     30.06 30.05      
May 14 11:53 WSW 17 8 Partly Cloudy FEW027 SCT140 SCT180 65 53     65%     30.01 30      
May 14 09:09 6 7 Mostly Cloudy SCT018 BKN140 63 53     70%     29.99        
May 11 17:53 ESE 7 10 Mostly Cloudy BKN025 BKN031 63 52     67%     29.82 29.81      
Jun 12 02:53 E 6 10 Mostly Clear FEW090 FEW220 57 51     81%     29.97 29.96      
Jun 10 23:53 SW 6 10 Clear   63 57     81%     29.87 29.86      
Jun 10 06:53 WSW 6 10 Cloudy BKN020 OVC026 62 58     86%     29.88 29.87      
Jun 10 05:53 WSW 3 10 Mostly Cloudy BKN023 62 57     84%     29.87 29.86      
Jun 09 15:53 WSW 14 10 Partly Cloudy FEW013 SCT100 69 60     73%     29.91 29.9      
Jun 09 12:53 WSW 14 9 Mostly Clear FEW017 FEW120 70 55     59%     29.96 29.95      
Jun 09 00:53 SSW 3 10 Mostly Clear FEW011 61 56     83%     29.94 29.93      
Jun 08 16:53 WSW 21 10 Clear and Windy   67 57     71%     29.95 29.95      
Jun 08 05:53 W 7 4 Clear   61 60     97%     29.99 29.98 0    
Jun 07 15:53 WSW 13 10 Mostly Clear FEW022 68 59     73%     29.94 29.93      
Jun 07 12:53 7 7 Cloudy OVC016 65 59     81%     29.98 29.98      
Jun 07 10:53 WSW 9 6 Haze SCT012 OVC014 63 59     87%     29.97 29.97     0
Jun 07 09:53 WSW 7 5 Fog/Mist BKN013 OVC018 63 59     87%     29.96 29.96